Flag for Russia Weather past 2 weeks in Moscow, Russia

18 °F

Ice fog.

Feels Like: 12 °F
Forecast: 18 / 25 °F
Wind: 3 mph from Southwest

Location: Moscow - Moscow / Vnukovo

Current Time: Nov 27, 2015 at 2:27:29 AM

Latest Report: Nov 27, 2015 at 1:30 AM

Visibility: 1 mi

Pressure: 30.12 "Hg

Humidity: 93%

Dew point: 16 °F

Location of MoscowLocation

Historic Weather in Moscow — Graph


Moscow temperature yesterday

Maximum temperature yesterday: 27 °F (at 1:00 PM)
Minimum temperature yesterday: 19 °F (at 3:00 AM)
Average temperature yesterday: 23 °F

Past Weeks' High & Low Weather Summary

High41 °F (Nov 20, 2:30 PM)100% (Nov 12, 1:30 AM)30.12 "Hg (Nov 12, 1:30 AM)
Low19 °F (Nov 26, 3:00 AM)80% (Nov 14, 2:30 PM)29.21 "Hg (Nov 21, 3:30 AM)
Average31 °F94%29.79 "Hg
* Reported Nov 12 1:30 AM — Nov 27 1:00 AM, Moscow, Weather by CustomWeather, © 2015

Note: Actual official high and low records may vary slightly from our data, if they occured in-between our weather recording intervals... More about our weather records


Moscow weather history for previous 24 hours

Time TempWeatherWind HumidityBarometerVisibility
1:00 AM
Fri, Nov 27
19 °FCold.1 mph93%30.12 "Hg1 mi
12:30 AM19 °FIce fog.3 mph93%30.12 "Hg1 mi
12:00 AM19 °FCold.6 mph93%30.12 "Hg0 mi
11:30 PM
Thu, Nov 26
19 °FCold.6 mph100%30.12 "Hg0 mi
11:00 PM21 °FIce fog.3 mph93%30.09 "Hg0 mi
10:30 PM21 °FCold.3 mph93%30.09 "Hg0 mi
10:00 PM21 °FIce fog.6 mph93%30.09 "Hg0 mi
9:30 PM21 °FIce fog.3 mph100%30.09 "Hg0 mi
9:00 PM21 °FCold.3 mph100%30.09 "Hg0 mi
8:30 PM23 °FCold.3 mph93%30.09 "Hg1 mi
8:00 PM21 °FIce fog.3 mph100%30.09 "Hg1 mi
7:30 PM23 °FIce fog.3 mph100%30.09 "Hg2 mi
7:00 PM23 °FIce fog.3 mph100%30.09 "Hg1 mi
6:30 PM23 °FIce fog.3 mph100%30.09 "Hg1 mi
6:00 PM23 °FCold.6 mph100%30.09 "Hg1 mi
5:30 PM23 °FSnow. Overcast.6 mph100%30.09 "Hg1 mi
5:00 PM23 °FCold.3 mph100%30.09 "Hg0 mi
4:30 PM23 °FIce fog.6 mph100%30.09 "Hg1 mi
4:00 PM25 °FIce fog.6 mph100%30.09 "Hg2 mi
3:30 PM27 °FIce fog.6 mph100%30.09 "Hg2 mi
3:00 PM27 °FIce fog.3 mph100%30.07 "Hg2 mi
2:30 PM27 °FIce fog.3 mph100%30.07 "Hg2 mi
2:00 PM27 °FIce fog.3 mph100%30.07 "Hg2 mi
1:30 PM27 °FIce fog.3 mph100%30.07 "Hg2 mi
1:00 PM27 °FIce fog.3 mph93%30.07 "Hg1 mi
12:30 PM25 °FIce fog.3 mph100%30.07 "Hg1 mi
12:00 PM25 °FIce fog.3 mph100%30.07 "Hg2 mi
11:30 AM25 °FLight snow. Ice fog.3 mph100%30.07 "Hg2 mi
11:00 AM25 °FLight snow. Ice fog.6 mph100%30.07 "Hg2 mi
10:30 AM25 °FLight snow. Ice fog.3 mph93%30.07 "Hg2 mi
9:30 AM23 °FLight snow. Ice fog.1 mph100%30.07 "Hg2 mi
9:00 AM23 °FLight snow. Ice fog.1 mph100%30.07 "Hg2 mi
8:30 AM23 °FIce fog.3 mph93%30.07 "Hg2 mi
8:00 AM23 °FIce fog.1 mph93%30.07 "Hg2 mi
7:30 AM21 °FIce fog.1 mph100%30.07 "Hg2 mi
6:30 AM21 °FIce fog.1 mph100%30.07 "Hg1 mi
6:00 AM21 °FIce fog.1 mph93%30.07 "Hg1 mi
5:30 AM21 °FIce fog.1 mph93%30.07 "Hg1 mi
5:00 AM19 °FIce fog.No wind93%30.07 "Hg0 mi
4:30 AM19 °FCold.No wind93%30.07 "Hg0 mi
4:00 AM19 °FSnow. Overcast.No wind93%30.07 "Hg0 mi
3:30 AM19 °FIce fog.1 mph93%30.07 "Hg0 mi
3:00 AM19 °FIce fog.No wind93%30.07 "Hg0 mi
2:30 AM21 °FCold.No wind93%30.07 "Hg0 mi
2:00 AM21 °FIce fog.1 mph100%30.07 "Hg1 mi
Weather by CustomWeather, © 2015

See weather overviewHow to use our weather pages